sat.trackr.live / text

‹ back to catalog

STARLINK-1338

NORAD 45532 · 2020-025B

PAYLOAD ACTIVE UNKNOWN

§ Identity

Operator
Country
US
Launch date
2020-04-22
Launch site
AFETR
Launch vehicle
Mass (kg)
RCS (m²)

Purposes: comms

External: N2YO · Heavens-Above · Gunter

§ Orbital elements

Epoch: 2026-09-20T06:00:02.000160Z

Period
90.70 min
Inclination
53.0351°
Eccentricity
0.0004661
Mean motion
15.87680453 rev/d
Perigee alt
305.7 km
Apogee alt
311.9 km
Semi-major
6,686.9 km
B*
6.1658e-4
RAAN
201.9294°
Arg perigee
66.3712°
Mean anomaly
327.8633°
Rev number
601

§ Raw data

STARLINK-13381 45532U 20025B   26263.25002315  .00171099  00000+0  61658-3 0  99902 45532  53.0351 201.9294 0004661  66.3712 327.8633 15.87680453  6013

JSON: /api/v1/satellites/45532 · /tle

For live sub-satellite position, see the globe view (requires WebGL).

§ Visibility from observer

Set your observer location to see the next 7 days of passes ≥ 10°. The values pass through the URL so the page stays shareable.

No JS? Fill the form by hand. The geolocation button needs JavaScript.